This is the latest recevied weather packets stored in our database for station/object KM4KMO-14. If no packets are shown the sender has not sent any weather packets the latest 10 day(s).
| Time | Temp. | Humidity | Pressure | Rain* | Wind** | Luminosity | Snow |
|---|---|---|---|---|---|---|---|
| 1777698750 | 13.89° C | 54% | 1011.7 hPa | 0 mm | - | - | - |
| 1777697850 | 13.89° C | 57% | 1011.7 hPa | 0 mm | - | - | - |
| 1777696950 | 14.44° C | 59% | 1011.8 hPa | 0 mm | - | - | - |
| 1777695150 | 14.44° C | 55% | 1011.8 hPa | 0 mm | - | - | - |
| 1777694250 | 15° C | 55% | 1011.9 hPa | 0 mm | - | - | - |
| 1777693350 | 15° C | 56% | 1011.7 hPa | 0 mm | - | - | - |
| 1777692450 | 15° C | 61% | 1011.8 hPa | 0 mm | - | - | - |
| 1777691550 | 15° C | 64% | 1011.7 hPa | 0 mm | - | - | - |
| 1777689750 | 15.56° C | 64% | 1011.5 hPa | 0 mm | - | - | - |
| 1777687950 | 16.11° C | 63% | 1011.4 hPa | 0 mm | - | - | - |
| 1777687050 | 16.11° C | 64% | 1011.2 hPa | 0 mm | - | - | - |
| 1777686150 | 16.67° C | 63% | 1011.1 hPa | 0 mm | - | - | - |
| 1777685250 | 17.22° C | 62% | 1010.9 hPa | 0 mm | - | - | - |
| 1777684350 | 17.22° C | 59% | 1010.7 hPa | 0 mm | - | - | - |
| 1777683449 | 17.22° C | 60% | 1010.2 hPa | 0 mm | - | - | - |
| 1777682549 | 17.22° C | 59% | 1010.1 hPa | 0 mm | - | - | - |
| 1777681649 | 17.22° C | 62% | 1009.9 hPa | 0 mm | - | - | - |
| 1777680749 | 17.78° C | 58% | 1009.6 hPa | 0 mm | - | - | - |
| 1777679849 | 17.78° C | 58% | 1009.7 hPa | 0 mm | - | - | - |
| 1777678949 | 18.33° C | 58% | 1009.4 hPa | 0 mm | - | - | - |
| 1777678049 | 18.33° C | 58% | 1009.7 hPa | 0 mm | - | - | - |
| 1777677149 | 18.89° C | 61% | 1009.6 hPa | 0 mm | - | - | - |
| 1777676249 | 19.44° C | 60% | 1009.2 hPa | 0 mm | - | - | - |
| 1777675349 | 20.56° C | 58% | 1009 hPa | 0 mm | - | - | - |
| 1777674450 | 21.67° C | 56% | 1009 hPa | 0 mm | - | - | - |
* Rain latest hour (hover to see other rain measurements)
** Current wind speed in m/s (hover to see current wind gust speed)